SCOUT B DEB, 29177

Orbit data source: Space-Track

SCOUT B DEB, 29177 is space debris in LEO originally from a launch on Tue, 10 Aug 1965 UTC launched from the Wallops Island (WLPIS). Debris objects in space refer to the collection of defunct objects orbiting the Earth. Examples of debris include non-operational satellites, rocket bodies, and fragments generated from explosions, collisions, or faulty payload assembly.

Loading next visibility...
Identifier
29177, 1965-063AB
Orbit
LEO
Last TLE update
5 months ago
Origin
Manufacturer
Unknown
Mission
Spacecraft
Bus & Motor
Unknown
Mass
Unknown
Launch date (UTC)
1965-08-10 (60 years ago)
Launch vehicle
Unknown
Launch site
Wallops Island (WLPIS)
Object type
Payload
Rocket body
Debris
Shape & HBR
Unknown
Radar Cross Section
Small (<0.1 m²)

Expand to show TLE details & history

TLE from 5 months ago
0 SCOUT B DEB
1 29177U 65063AB  24346.02090466 -.00000566  00000-0 -40833-2 0  9991
2 29177  69.2143  72.6906 0666688 116.8677  53.1185 11.88940000  3781
Epoch: 2024-12-11T00:30Z
Definitive object data (Epoch: 2024-12-11T00:30:06.162Z)
Latitude
3.28534°
Longitude
163.70103°
Altitude
1,432.404 km
Speed
7.277 km/s
True Right ascension
16h 45m 47s
True Declination
3° 16' 03"
Sunlit
Object was in daylight at TLE epoch
Visualization TLE readout
Latitude
-10.95515°
Longitude
-61.09115°
Altitude
2,255.158 km
Speed
6.574 km/s
Apparent Right ascension
02h 58m 25s
Apparent Declination
-55° 29' 57"
Sunlit
Object is in daylight
Visualization observer readout
Local Sidereal Time
00:49:31
Azimuth
162.179° S
Elevation
-9.282°
Doppler factor
1
Orbital elements
Apogee altitude
2,269.564 km
Perigee altitude
1,188.569 km
Semi-major axis
8,107.203 km
Eccentricity
0.0666688
Inclination
69.2143°
RAAN
72.6906°
Arg. of periapsis
116.8677°
True anomaly
59.53679°
Mean anomaly
53.1185°
Eccentric anomaly
56.2963°
Mean motion
2.97329 °/min
BSTAR
-0.0040833
Orbital period
121.08 mins
Loading maneuver chart data...
Loading SW <> Apogee altitude chart data...
Loading historical data...
Loading historical data...
Loading historical data...
Loading historical data...
Loading historical data...
Loading historical data...
Loading historical data...

SCOUT B DEB Visibility forecast

Observer location: undefined°, undefined°

Span
Click to sort rows by Start time (UTC) header in descending order
Start Az.
Max El. time (UTC)
Max El. Az.
Max El.
End time (UTC)
End Az.
15 mins2025-05-09 18:15:00.442Z303.085° NW2025-05-09 18:22:00.442Z264.385° W19.522°2025-05-09 18:30:00.442Z224.656° SW
14 mins2025-05-10 05:48:00.442Z182.008° SSW2025-05-10 05:54:00.442Z106.684° ESE40.475°2025-05-10 06:02:00.442Z32.66° NE
12 mins2025-05-10 07:54:00.442Z263.047° W2025-05-10 07:59:00.442Z313.76° NW27.417°2025-05-10 08:06:00.442Z10.533° NNE
8 mins2025-05-10 12:16:00.442Z5.462° NNE2025-05-10 12:19:00.442Z23.478° NE13.85°2025-05-10 12:24:00.442Z50.711° ENE
20 mins2025-05-10 14:19:00.442Z348.308° N2025-05-10 14:28:00.442Z55.772° ENE33.731°2025-05-10 14:39:00.442Z118.941° SE
16 mins2025-05-10 16:23:00.442Z327.516° NNW2025-05-10 16:33:00.442Z251.093° W42.199°2025-05-10 16:39:00.442Z185.361° SSW
|